Flag for U.S.A. Weather past 2 weeks in Detroit, Michigan, U.S.A.

Now
40 °F

Clear.


Feels Like: 40 °F
Forecast: 40 / 60 °F
Wind: No wind

Location: Detroit City Airport

Current Time: Oct 24, 2014 at 6:38:49 AM

Latest Report: Oct 24, 2014 at 5:53 AM


Visibility: 7 mi

Pressure: 30.10 "Hg

Humidity: 86%

Dew point: 36 °F

Location of DetroitLocation

Historic Weather in Detroit — Graph

°F

Detroit temperature yesterday

Maximum temperature yesterday: 61 °F (at 4:53 PM)
Minimum temperature yesterday: 39 °F (at 7:53 AM)
Average temperature yesterday: 49 °F

Past Weeks' High & Low Weather Summary

 TemperatureHumidityPressure
High72 °F (Oct 13, 4:53 PM)91% (Oct 13, 12:53 PM)30.34 "Hg (Oct 13, 12:53 PM)
Low35 °F (Oct 19, 7:53 AM)33% (Oct 11, 2:53 PM)29.50 "Hg (Oct 17, 2:53 PM)
Average54 °F68%29.98 "Hg
* Reported Oct 9 4:53 AM — Oct 24 4:53 AM, Detroit, Weather by CustomWeather, © 2014

Note: Actual official high and low records may vary slightly from our data, if they occured in-between our weather recording intervals... More about our weather records

Advertising

Detroit weather history for previous 24 hours

 ConditionsComfort  
Time TempWeatherWind HumidityBarometerVisibility
4:53 AM
Oct 24
40 °FClear.No wind83%30.09 "Hg8 mi
3:53 AM41 °FClear.No wind86%30.09 "Hg7 mi
2:53 AM42 °FClear.No wind82%30.10 "Hg7 mi
1:53 AM42 °FClear.No wind85%30.10 "Hg8 mi
12:53 AM44 °FClear.No wind79%30.11 "Hg9 mi
11:53 PM
Oct 23
43 °FClear.No wind86%30.11 "Hg7 mi
10:53 PM45 °FClear.No wind80%30.12 "Hg10 mi
9:53 PM46 °FClear.No wind77%30.13 "Hg10 mi
8:53 PM50 °FClear.No wind68%30.12 "Hg10 mi
7:53 PM51 °FClear.No wind66%30.13 "Hg10 mi
6:53 PM57 °FSunny.5 mph47%30.13 "Hg10 mi
5:53 PM59 °FSunny.6 mph44%30.13 "Hg10 mi
4:53 PM61 °FSunny.No wind42%30.14 "Hg10 mi
3:53 PM60 °FSunny.6 mph44%30.14 "Hg10 mi
2:53 PM59 °FSunny.No wind46%30.17 "Hg10 mi
1:53 PM57 °FSunny.5 mph51%30.20 "Hg10 mi
12:53 PM56 °FSunny.No wind55%30.23 "Hg10 mi
11:53 AM54 °FSunny.5 mph57%30.25 "Hg10 mi
10:53 AM51 °FSunny.No wind66%30.26 "Hg10 mi
9:53 AM47 °FSunny.3 mph71%30.27 "Hg10 mi
8:53 AM42 °FClear.5 mph79%30.25 "Hg10 mi
7:53 AM39 °FClear.3 mph86%30.25 "Hg10 mi
6:53 AM40 °FClear.3 mph83%30.26 "Hg10 mi
Weather by CustomWeather, © 2014

See weather overviewHow to use our weather pages